Date String (YYYY-MM-DD hh:mm:ss) UTC,Instrument flags,Ambient pressure (hPa),Sample flow (lpm),Bypass flow (lpm),Sample temperature (°C),Ambient temperature (°C),ASC tube jacket temperature (°C),LED temperature (°C),Box temperature (°C),Sample RH (%),Span deviation,Mass concentration (μg/m³),Mass concentration (μg/m³),Mass concentration (μg/m³)
DateTimeUTC,F1_M11,P_M11,Q1_M11,Q2_M11,T1_M11,T2_M11,T3_M11,T4_M11,T5_M11,U1_M11,ZSPAN_M11,X2_M11,X0_M11,X1_M11
2022-12-23 05:00:00,,0830.5,4.99,0.00,21.6,20.3,00.0,30.5,23.1,02.2,0002.4,0004.34,0007.29,0003.99
2022-12-23 05:01:00,,0830.6,5.03,0.00,21.6,20.8,00.0,30.4,23.2,02.2,0002.3,0004.36,0007.98,0004.03
2022-12-23 05:02:00,,0830.5,5.01,0.00,21.7,21.6,00.0,30.4,23.4,02.2,0002.5,0004.42,0008.08,0004.08
2022-12-23 05:03:00,,0830.5,4.99,0.00,21.8,22.3,00.0,30.4,23.6,02.2,0002.3,0004.47,0008.25,0004.10
2022-12-23 05:04:00,,0830.4,5.01,0.00,21.9,22.1,00.0,30.5,23.7,02.2,0002.2,0004.48,0008.26,0004.12
2022-12-23 05:05:00,,0830.4,4.98,0.00,21.8,21.4,00.0,30.5,23.5,02.2,0002.5,0004.53,0008.34,0004.16
2022-12-23 05:06:00,,0830.5,5.03,0.00,21.8,20.8,00.0,30.5,23.3,02.2,0002.2,0004.53,0008.39,0004.18
2022-12-23 05:07:00,,0830.6,5.01,0.00,21.7,20.1,00.0,30.5,23.1,02.2,0002.5,0004.55,0008.49,0004.20
2022-12-23 05:08:00,,0830.6,4.97,0.00,21.6,20.1,00.0,30.5,23.0,02.2,0002.5,0004.56,0008.48,0004.21
2022-12-23 05:09:00,,0830.6,5.00,0.00,21.7,20.9,00.0,30.4,23.3,02.2,0002.6,0004.60,0008.56,0004.23
2022-12-23 05:10:00,,0830.4,5.04,0.00,21.8,21.7,00.0,30.4,23.5,02.2,0002.8,0004.63,0008.64,0004.24
2022-12-23 05:11:00,,0830.5,4.97,0.00,21.8,22.1,00.0,30.5,23.6,02.2,0003.0,0004.68,0008.54,0004.24
2022-12-23 05:12:00,,0830.4,5.03,0.00,21.8,21.3,00.0,30.5,23.4,02.2,0003.0,0004.67,0008.00,0004.22
2022-12-23 05:13:00,,0830.5,4.97,0.00,21.7,20.3,00.0,30.5,23.1,02.2,0002.9,0004.66,0007.99,0004.21
2022-12-23 05:14:00,,0830.4,4.98,0.00,21.5,19.5,00.0,30.5,22.8,02.2,0003.3,0004.65,0008.22,0004.21
2022-12-23 05:15:00,,0830.4,5.03,0.00,21.5,20.2,00.0,30.4,22.9,02.3,0003.1,0004.64,0008.45,0004.20
2022-12-23 05:16:00,,0830.5,5.03,0.00,21.6,21.1,00.0,30.4,23.2,02.3,0002.1,0004.59,0008.54,0004.16
2022-12-23 05:17:00,,0830.6,4.97,0.00,21.7,21.8,00.0,30.4,23.4,02.3,0003.3,0004.60,0009.05,0004.14
2022-12-23 05:18:00,,0830.5,5.02,0.00,21.8,22.0,00.0,30.4,23.5,02.2,0003.1,0004.58,0009.51,0004.12
2022-12-23 05:19:00,,0830.5,4.95,0.00,21.7,21.1,00.0,30.5,23.3,02.2,0002.7,0004.58,0009.56,0004.11
2022-12-23 05:20:00,,0830.6,5.03,0.00,21.6,20.3,00.0,30.5,23.0,02.3,0001.6,0004.54,0009.51,0004.08
2022-12-23 05:21:00,,0830.6,5.03,0.00,21.5,19.8,00.0,30.5,22.9,02.3,0001.5,0004.51,0009.68,0004.07
2022-12-23 05:22:00,,0830.6,4.97,0.00,21.5,20.6,00.0,30.4,23.1,02.3,0002.6,0004.48,0009.94,0004.07
2022-12-23 05:23:00,,0830.7,5.01,0.00,21.6,21.5,00.0,30.4,23.3,02.3,0001.8,0004.49,0010.05,0004.08
2022-12-23 05:24:00,,0830.6,5.00,0.00,21.7,22.1,00.0,30.4,23.5,02.2,0000.3,0004.48,0010.03,0004.08
2022-12-23 05:25:00,,0830.6,4.99,0.00,21.8,21.7,00.0,30.4,23.4,02.2,0000.2,0004.45,0009.65,0004.08
2022-12-23 05:26:00,,0830.7,5.03,0.00,21.7,20.9,00.0,30.5,23.2,02.2,0000.5,0004.47,0009.62,0004.09
2022-12-23 05:27:00,,0830.8,4.95,0.00,21.6,20.0,00.0,30.5,23.0,02.2,0000.7,0004.54,0010.56,0004.13
2022-12-23 05:28:00,,0830.7,5.01,0.00,21.5,20.2,00.0,30.4,23.0,02.3,0000.6,0004.58,0010.80,0004.16
2022-12-23 05:29:00,,0830.6,5.02,0.00,21.6,21.1,00.0,30.4,23.2,02.3,0000.6,0004.64,0010.52,0004.20
2022-12-23 05:30:00,,0830.8,4.96,0.00,21.7,21.9,00.0,30.4,23.4,02.3,0000.9,0004.68,0010.55,0004.24
2022-12-23 05:31:00,,0830.7,5.03,0.00,21.8,21.9,00.0,30.4,23.5,02.2,0000.6,0004.69,0010.55,0004.26
2022-12-23 05:32:00,,0830.6,4.99,0.00,21.7,21.1,00.0,30.5,23.3,02.2,0000.7,0004.70,0010.40,0004.25
2022-12-23 05:33:00,,0830.5,4.99,0.00,21.6,20.5,00.0,30.5,23.1,02.3,0001.1,0004.71,0010.16,0004.23
2022-12-23 05:34:00,,0830.6,5.00,0.00,21.5,19.9,00.0,30.4,22.9,02.3,0001.9,0004.70,0010.23,0004.22
2022-12-23 05:35:00,,0830.5,5.01,0.00,21.5,20.3,00.0,30.4,23.0,02.3,0002.9,0004.69,0010.22,0004.20
2022-12-23 05:36:00,,0830.6,4.95,0.00,21.6,21.1,00.0,30.4,23.2,02.3,0003.3,0004.69,0010.27,0004.19
2022-12-23 05:37:00,,0830.6,5.02,0.00,21.7,21.8,00.0,30.3,23.4,02.3,0003.6,0004.66,0010.16,0004.18
2022-12-23 05:38:00,,0830.8,4.97,0.00,21.8,22.2,00.0,30.4,23.6,02.3,0003.6,0004.62,0009.58,0004.15
2022-12-23 05:39:00,,0830.7,5.03,0.00,21.7,21.1,00.0,30.4,23.2,02.3,0002.8,0004.57,0008.84,0004.10
2022-12-23 05:40:00,,0830.6,5.03,0.00,21.6,20.0,00.0,30.4,22.9,02.3,0003.2,0004.52,0008.54,0004.06
2022-12-23 05:41:00,,0830.6,5.01,0.00,21.4,19.6,00.0,30.4,22.8,02.3,0002.6,0004.49,0008.56,0004.02
2022-12-23 05:42:00,,0830.7,4.96,0.00,21.5,20.5,00.0,30.3,23.0,02.3,0002.2,0004.47,0008.57,0003.99
2022-12-23 05:43:00,,0830.8,5.03,0.00,21.6,21.3,00.0,30.3,23.2,02.3,0001.7,0004.44,0008.55,0003.98
2022-12-23 05:44:00,,0830.7,4.97,0.00,21.7,21.8,00.0,30.3,23.4,02.3,0001.5,0004.45,0008.48,0003.98
2022-12-23 05:45:00,,0830.7,5.04,0.00,21.8,22.0,00.0,30.3,23.5,02.3,0001.7,0004.49,0008.40,0003.99
2022-12-23 05:46:00,,0830.8,5.01,0.00,21.7,21.0,00.0,30.4,23.2,02.3,0001.3,0004.49,0008.40,0004.00
2022-12-23 05:47:00,,0830.7,4.96,0.00,21.5,20.0,00.0,30.4,22.9,02.3,0001.4,0004.50,0008.65,0004.00
2022-12-23 05:48:00,,0830.7,5.02,0.00,21.4,19.9,00.0,30.4,22.8,02.3,0001.0,0004.51,0008.90,0004.00
2022-12-23 05:49:00,,0830.8,5.02,0.00,21.5,20.9,00.0,30.3,23.1,02.3,0000.5,0004.51,0008.44,0004.02
2022-12-23 05:50:00,,0830.9,4.96,0.00,21.6,21.7,00.0,30.3,23.3,02.3,0001.4,0004.48,0008.38,0004.02
2022-12-23 05:51:00,,0830.9,5.04,0.00,21.7,21.9,00.0,30.4,23.4,02.3,0002.1,0004.48,0008.83,0004.03
2022-12-23 05:52:00,,0830.6,4.98,0.00,21.7,21.2,00.0,30.4,23.3,02.3,0002.3,0004.49,0009.04,0004.04
2022-12-23 05:53:00,,0830.7,4.99,0.00,21.6,20.5,00.0,30.4,23.1,02.3,0000.0,0004.50,0009.01,0004.06
2022-12-23 05:54:00,,0830.8,5.03,0.00,21.5,20.0,00.0,30.4,22.9,02.3,0001.1,0004.51,0009.03,0004.08
2022-12-23 05:55:00,,0830.8,5.00,0.00,21.5,20.7,00.0,30.4,23.1,02.3,0003.3,0004.45,0008.90,0004.08
2022-12-23 05:56:00,,0830.8,4.98,0.00,21.6,21.5,00.0,30.3,23.3,02.3,0003.2,0004.43,0008.83,0004.07
2022-12-23 05:57:00,,0830.8,5.03,0.00,21.7,22.2,00.0,30.3,23.5,02.3,0003.1,0004.46,0008.97,0004.10
2022-12-23 05:58:00,,0830.8,4.95,0.00,21.7,21.6,00.0,30.4,23.4,02.2,0003.2,0004.47,0008.61,0004.12
2022-12-23 05:59:00,,0830.8,5.03,0.00,21.6,20.6,00.0,30.4,23.1,02.3,0002.9,0004.48,0008.40,0004.14
